Change the Weather History Date:

Thursday, September 25, 2014

  Actual Average Record
Temperature  
Mean Temperature 68 °F -  
Max Temperature 76 °F 74 °F 82 °F (1997)
Min Temperature 61 °F 56 °F 51 °F (2002)
Cooling Degree Days 4    
Growing Degree Days 18 (Base 50)    
Moisture  
Dew Point 59 °F    
Average Humidity 72    
Maximum Humidity 94    
Minimum Humidity 44    
Precipitation  
Precipitation 0.24 in 0.08 in - ()
Sea Level Pressure  
Sea Level Pressure 30.07 in    
Wind  
Wind Speed 8 mph ()    
Max Wind Speed 23 mph    
Max Gust Speed 32 mph    
Visibility 6.5 miles    
Events Rain , Thunderstorm    
Averages and records for this station are not official NWS values.
T = Trace of Precipitation, MM = Missing Value Source: Averaged Metar Reports

Daily Weather History Graph

Daily Weather History Graph

Search for Another Location

Airport or City:

Trip Planner

Search our weather history database for the weather conditions in past years. The results will help you decide how hot, cold, wet, or windy it might be!

Date:

Astronomy

Sep. 25, 2014 Rise Set
Actual Time 7:39 AM CEST 7:41 PM CEST
Civil Twilight 7:12 AM CEST 8:08 PM CEST
Nautical Twilight 6:41 AM CEST 8:39 PM CEST
Astronomical Twilight 6:09 AM CEST 9:11 PM CEST
Moon 8:42 AM CEST (9/25) 8:17 PM CEST (9/25)
Length of Visible Light 12h 55m
Length of Day
12h 02m
New Moon, 1% of the Moon is Illuminated
Sep 25
New Moon
Oct 1
First Quarter
Oct 8
Full
Oct 15
Last Quarter
Oct 23
New

Hourly Weather History & Observations

Time (CEST) Temp. Dew Point Humidity Pressure Visibility Wind Dir Wind Speed Gust Speed Precip Events Conditions
12:00 AM 66 °F 64 °F 90% 30.02 in - Calm Calm - -  
12:00 AM 66.2 °F 62.6 °F 88% 30.01 in 6.2 mi Variable 1.2 mph - N/A   Partly Cloudy
12:30 AM 64.4 °F 62.6 °F 94% 30.01 in 6.2 mi NNE 2.3 mph - N/A   Partly Cloudy
1:00 AM 65 °F 63 °F 92% 30.01 in - North 2.3 mph - -  
1:00 AM 64.4 °F 62.6 °F 94% 30.01 in 6.2 mi North 3.5 mph - N/A   Partly Cloudy
1:30 AM 64.4 °F 62.6 °F 94% 30.01 in 6.2 mi NE 3.5 mph - N/A   Partly Cloudy
2:00 AM 65 °F 63 °F 90% 30.00 in 9 mi East 2.3 mph - -   Partly Cloudy
2:00 AM 64.4 °F 62.6 °F 94% 29.98 in 6.2 mi East 3.5 mph - N/A   Partly Cloudy
2:30 AM 64.4 °F 62.6 °F 94% 30.01 in 6.2 mi ENE 3.5 mph - N/A   Partly Cloudy
2:48 AM 66.2 °F 60.8 °F 83% 30.04 in 6.2 mi NNW 11.5 mph 25.3 mph N/A Rain , Thunderstorm Light Thunderstorms and Rain
3:00 AM 63 °F 61 °F 89% 30.03 in - NW 15.0 mph - -   Unknown Precipitation
3:00 AM 62.6 °F 60.8 °F 94% 30.01 in 1.2 mi NNW 19.6 mph 32.2 mph N/A Rain , Thunderstorm Heavy Thunderstorms and Rain
3:08 AM 60.8 °F 59.0 °F 94% 30.01 in 3.7 mi North 13.8 mph - N/A Rain , Thunderstorm Light Thunderstorms and Rain
3:30 AM 62.6 °F 60.8 °F 94% 30.01 in 6.2 mi North 4.6 mph - N/A Rain , Thunderstorm Thunderstorms and Rain
3:48 AM 62.6 °F 60.8 °F 94% 30.01 in 6.2 mi East 10.4 mph - N/A Rain , Thunderstorm Light Rain
4:00 AM 64 °F 61 °F 87% 30.01 in - ENE 6.9 mph - -   Unknown Precipitation
4:00 AM 62.6 °F 60.8 °F 94% 30.01 in 6.2 mi ENE 11.5 mph - N/A Rain , Thunderstorm Light Rain
4:30 AM - - N/A% 30.01 in 6.2 mi NE 6.9 mph - N/A   Partly Cloudy
5:00 AM - - %  in 11 mi Calm Calm - -   Partly Cloudy
5:00 AM - - N/A% 30.01 in 6.2 mi ENE 6.9 mph - N/A   Partly Cloudy
5:30 AM - - N/A% 30.01 in 6.2 mi ENE 9.2 mph - N/A   Partly Cloudy
6:00 AM - - %  in - Calm Calm - -  
6:00 AM - - N/A% 30.01 in 6.2 mi ENE 5.8 mph - N/A   Partly Cloudy
6:30 AM - - N/A% 30.01 in 6.2 mi ENE 5.8 mph - N/A   Partly Cloudy
7:00 AM - - %  in - Calm Calm - -  
7:00 AM - - N/A% 30.01 in 6.2 mi NE 5.8 mph - N/A   Partly Cloudy
7:30 AM 62.6 °F 60.8 °F 94% 30.04 in 6.2 mi NE 5.8 mph - N/A   Partly Cloudy
8:00 AM 64 °F 62 °F 93% 30.05 in 7 mi Calm Calm - -   Partly Cloudy
8:00 AM 62.6 °F 60.8 °F 94% 30.04 in 5.0 mi NE 4.6 mph - N/A   Partly Cloudy
8:30 AM 64.4 °F 60.8 °F 88% 30.04 in 5.0 mi Variable 1.2 mph - N/A   Scattered Clouds
9:00 AM 68 °F 63 °F 79% 30.06 in - ENE 11.5 mph - -  
9:00 AM 68.0 °F 62.6 °F 83% 30.04 in 5.0 mi NE 5.8 mph - N/A   Scattered Clouds
9:30 AM 68.0 °F 62.6 °F 83% 30.06 in 5.0 mi ENE 13.8 mph - N/A   Partly Cloudy
10:00 AM 66 °F 62 °F 82% 30.09 in - ENE 20.7 mph - -  
10:00 AM 66.2 °F 60.8 °F 83% 30.06 in 5.0 mi ENE 18.4 mph - N/A Rain Light Rain
10:30 AM 66.2 °F 62.6 °F 88% 30.09 in 5.0 mi ENE 10.4 mph - N/A Rain Light Rain
11:00 AM 69 °F 63 °F 74% 30.10 in 9 mi ENE 8.1 mph - -   Scattered Clouds
11:00 AM 68.0 °F 62.6 °F 83% 30.09 in 6.2 mi NE 8.1 mph - N/A   Partly Cloudy
11:30 AM 69.8 °F 62.6 °F 78% 30.09 in 5.0 mi NE 11.5 mph - N/A   Partly Cloudy
12:00 PM 74 °F 60 °F 53% 30.09 in - ENE 19.6 mph - -  
12:00 PM 71.6 °F 62.6 °F 73% 30.06 in 6.2 mi ENE 19.6 mph - N/A   Scattered Clouds
12:30 PM 68.0 °F 57.2 °F 68% 30.09 in 6.2 mi ENE 20.7 mph - N/A   Scattered Clouds
1:00 PM 74 °F 58 °F 49% 30.10 in - ENE 23.0 mph - -  
1:00 PM 73.4 °F 59.0 °F 61% 30.09 in 6.2 mi ENE 21.9 mph - N/A   Partly Cloudy
1:30 PM 73.4 °F 59.0 °F 61% 30.09 in 6.2 mi NE 23.0 mph - N/A   Partly Cloudy
2:00 PM 75 °F 58 °F 46% 30.09 in 12 mi ENE 23.0 mph - -   Scattered Clouds
2:00 PM 73.4 °F 59.0 °F 61% 30.09 in 6.2 mi ENE 21.9 mph - N/A   Partly Cloudy
2:30 PM 73.4 °F 57.2 °F 57% 30.09 in 6.2 mi ENE 21.9 mph - N/A   Partly Cloudy
3:00 PM 73 °F 56 °F 46% 30.09 in - East 19.6 mph - -  
3:00 PM 73.4 °F 57.2 °F 57% 30.09 in 6.2 mi ENE 16.1 mph - N/A   Scattered Clouds
3:30 PM 73.4 °F 57.2 °F 57% 30.09 in 6.2 mi ENE 16.1 mph - N/A   Scattered Clouds
4:00 PM 73 °F 56 °F 45% 30.10 in - ENE 17.3 mph - -  
4:00 PM 73.4 °F 55.4 °F 53% 30.09 in 6.2 mi ENE 15.0 mph - N/A   Scattered Clouds
4:30 PM 73.4 °F 55.4 °F 53% 30.09 in 6.2 mi ENE 17.3 mph - N/A   Partly Cloudy
5:00 PM 73 °F 56 °F 44% 30.09 in 12 mi ENE 17.3 mph - -   Scattered Clouds
5:00 PM 71.6 °F 55.4 °F 57% 30.09 in 6.2 mi NE 17.3 mph - N/A   Partly Cloudy
5:30 PM 71.6 °F 55.4 °F 57% 30.09 in 6.2 mi ENE 12.7 mph - N/A   Partly Cloudy
6:00 PM 72 °F 55 °F 44% 30.10 in - ENE 16.1 mph - -  
6:00 PM 71.6 °F 55.4 °F 57% 30.09 in 6.2 mi NE 15.0 mph - N/A   Partly Cloudy
6:30 PM 71.6 °F 55.4 °F 57% 30.09 in 6.2 mi ENE 12.7 mph - N/A   Partly Cloudy
7:00 PM 71 °F 54 °F 44% 30.11 in - ENE 11.5 mph - -  
7:00 PM 71.6 °F 53.6 °F 53% 30.09 in 6.2 mi ENE 11.5 mph - N/A   Partly Cloudy
7:30 PM 69.8 °F 53.6 °F 56% 30.09 in 6.2 mi ENE 8.1 mph - N/A   Partly Cloudy
8:00 PM 69 °F 53 °F 46% 30.12 in 9 mi ENE 6.9 mph - -   Scattered Clouds
8:00 PM 68.0 °F 53.6 °F 60% 30.09 in 6.2 mi ENE 6.9 mph - N/A   Partly Cloudy
8:30 PM 68.0 °F 53.6 °F 60% 30.12 in 6.2 mi NE 5.8 mph - N/A   Partly Cloudy
9:00 PM 67 °F 53 °F 50% 30.14 in - ENE 1.2 mph - -  
9:00 PM 66.2 °F 53.6 °F 64% 30.12 in 6.2 mi NE 3.5 mph - N/A   Partly Cloudy
9:30 PM 64.4 °F 53.6 °F 68% 30.15 in 6.2 mi NE 4.6 mph - N/A   Partly Cloudy
10:00 PM 64 °F 54 °F 62% 30.16 in - ENE 3.5 mph - -  
10:00 PM 64.4 °F 55.4 °F 73% 30.15 in 6.2 mi NE 3.5 mph - N/A   Partly Cloudy
10:30 PM 62.6 °F 53.6 °F 72% 30.15 in 6.2 mi NE 2.3 mph - N/A   Partly Cloudy
11:00 PM 64 °F 54 °F 61% 30.18 in 16 mi WSW 1.2 mph - -   Scattered Clouds
11:00 PM 62.6 °F 53.6 °F 72% 30.15 in 6.2 mi ENE 3.5 mph - N/A   Partly Cloudy